Location: Cypress Hills Dark-Sky Preserve - CHICO
(49.6176°N, 110.2634°W)
Time: 07:27:23
(UTC-07:00)

Amateur Radio Satellites - All Passes

Search period start: 19 December 2014 06:57
Search period end: 20 December 2014 06:57
Location: Cypress Hills Dark-Sky Preserve - CHICO, 49.6176°N, 110.2634°W

Satellite Date Start Highest point End Downlink Frequencies (MHz)
Time Altitude Azimuth
STRAND 1 19 Dec 07:15:39 07:20:06 29° 266° (W) 07:24:33 437.568
VERMONT LUNAR 19 Dec 07:17:19 07:19:41 17° 190° (S) 07:22:03 437.305
PHONESAT 2.4 19 Dec 07:23:16 07:25:52 19° 186° (S) 07:28:29 2401.200-2431.200
GONETS M04 19 Dec 07:26:28 07:34:53 46° 291° (WNW) 07:43:20
SO-50 19 Dec 07:29:02 07:32:28 19° 248° (WSW) 07:35:55 436.795
CUTE-I 19 Dec 07:30:38 07:35:50 56° 291° (WNW) 07:41:01 437.470
AO-7 19 Dec 07:36:30 07:42:22 22° 319° (NW) 07:48:14 29.400- 29.500
CUBESAT XI-V 19 Dec 07:46:46 07:49:04 13° 273° (W) 07:51:22 437.345
JAS-2 19 Dec 07:52:13 07:55:23 15° 312° (NW) 07:58:24 435.910
BRITE-PL 19 Dec 08:05:14 08:08:00 16° 90° (E) 08:10:52 437.365/2234.400
ANTELSAT 19 Dec 08:23:41 08:25:25 12° 54° (NE) 08:27:10 437.575/2403.000
AAUSAT CUBESAT 2 19 Dec 08:23:53 08:25:37 12° 87° (E) 08:27:20 437.432
CANX-2 19 Dec 08:30:29 08:33:59 23° 93° (E) 08:37:27 2200.000
Cubesat XI-IV 19 Dec 08:37:54 08:41:34 19° 304° (NW) 08:45:14 437.490
GOMX 1 19 Dec 08:39:07 08:42:53 24° 93° (E) 08:46:49 467.674
O/OREOS (USA 219) 19 Dec 08:49:05 08:51:20 14° 39° (NE) 08:53:35 437.305
QB50P1 19 Dec 08:49:31 08:51:30 13° 57° (ENE) 08:53:29 145.935-145.965
COMPASS 1 19 Dec 08:56:34 09:00:17 28° 94° (E) 09:03:58 437.405
HO-68 19 Dec 08:56:39 09:03:30 46° 99° (E) 09:10:17 435.675
TIGRISAT 19 Dec 08:58:08 09:01:34 23° 61° (ENE) 09:05:03 435.000
SEEDS 19 Dec 08:59:50 09:03:49 35° 96° (E) 09:07:45 437.485
CUTE 1.7 + AOD 2 19 Dec 09:01:07 09:05:15 42° 98° (E) 09:09:21 437.475
PHONESAT 2.4 19 Dec 09:03:12 09:03:43 10° 203° (SSW) 09:04:15 2401.200-2431.200
DX 1 19 Dec 09:08:20 09:10:34 14° 89° (E) 09:12:48 434.975-435.025
DOVE 4 19 Dec 09:11:20 09:15:37 35° 96° (E) 09:20:07 437.250
CUTE-I 19 Dec 09:13:09 09:14:50 12° 311° (NW) 09:16:30 437.470
MaSat-1 19 Dec 09:14:56 09:16:49 22° 114° (ESE) 09:18:40 437.345
POPSAT HIP 1 19 Dec 09:16:27 09:19:43 22° 62° (ENE) 09:23:00 437.405
DELFI C3 19 Dec 09:22:42 09:25:50 21° 92° (E) 09:28:57 145.870
UNISAT 6 19 Dec 09:25:38 09:29:43 39° 67° (ENE) 09:33:55 437.425
GONETS M04 19 Dec 09:30:59 09:34:37 13° 319° (NW) 09:38:15
Oscar 11 19 Dec 09:32:19 09:36:13 31° 95° (E) 09:40:05 145.826/435.025
HUMSAT D 19 Dec 09:37:13 09:38:07 11° 86° (E) 09:39:01 437.325/437.525
CUSAT 1 19 Dec 09:38:07 09:41:36 36° 90° (E) 09:46:10 437.405
YUBILEINY 19 Dec 09:39:30 09:46:43 28° 59° (ENE) 09:53:53 435.215
UKube-1 19 Dec 09:40:00 09:43:41 27° 95° (E) 09:47:21 .
CUBEBUG 2 19 Dec 09:41:29 09:45:25 27° 94° (E) 09:49:25 437.445
BRITE-PL 19 Dec 09:42:25 09:46:58 74° 286° (WNW) 09:51:52 437.365/2234.400
DUCHIFAT 1 19 Dec 09:44:27 09:48:22 39° 68° (ENE) 09:52:18 145.980
CINEMA 3 19 Dec 09:47:49 09:52:20 47° 99° (E) 09:57:01 145.822/145.860
BUGSAT 1 19 Dec 09:50:54 09:54:41 37° 68° (ENE) 09:58:26 437.445
VELOX 1 19 Dec 09:56:18 09:58:56 15° 89° (E) 10:01:34 145.980
QB50P2 19 Dec 09:56:40 10:00:46 52° 71° (ENE) 10:04:54 145.880/145.840
ANTELSAT 19 Dec 09:57:03 10:01:25 78° 74° (ENE) 10:05:57 437.575/2403.000
AAUSAT CUBESAT 2 19 Dec 09:57:35 10:01:52 81° 285° (WNW) 10:06:06 437.432
ZACube-1 19 Dec 09:58:38 10:02:35 29° 95° (E) 10:06:34 437.345
POLYITAN 1 19 Dec 10:04:53 10:09:03 64° 72° (ENE) 10:13:15 437.675
CANX-2 19 Dec 10:06:00 10:10:06 42° 291° (WNW) 10:14:11 2200.000
NANOSAT C BR1 19 Dec 10:08:27 10:12:37 68° 73° (ENE) 10:16:49 145.865
GOMX 1 19 Dec 10:16:46 10:21:13 49° 290° (WNW) 10:25:58 467.674
DANDE 19 Dec 10:22:28 10:26:03 82° 100° (E) 10:30:58 436.750
UWE-3 19 Dec 10:22:29 10:26:59 56° 100° (E) 10:31:32 435.000/436.395/437.385
QB50P1 19 Dec 10:22:33 10:26:46 87° 256° (WSW) 10:31:01 145.935-145.965
FUNcube-1 19 Dec 10:25:35 10:29:59 51° 100° (E) 10:34:26 145.935
O/OREOS (USA 219) 19 Dec 10:27:08 10:31:38 67° 61° (ENE) 10:36:09 437.305
COMPASS 1 19 Dec 10:32:11 10:36:03 34° 293° (WNW) 10:39:53 437.405
TIGRISAT 19 Dec 10:33:49 10:38:02 48° 261° (W) 10:42:23 435.000
SEEDS 19 Dec 10:35:52 10:39:32 28° 295° (WNW) 10:43:12 437.485
CUTE 1.7 + AOD 2 19 Dec 10:37:28 10:40:59 25° 296° (WNW) 10:44:29 437.475
AISAT 19 Dec 10:37:34 10:41:43 38° 98° (E) 10:45:51 437.250
DX 1 19 Dec 10:42:59 10:47:21 74° 287° (WNW) 10:51:40 434.975-435.025
HO-68 19 Dec 10:44:31 10:51:14 45° 299° (WNW) 10:57:55 435.675
MaSat-1 19 Dec 10:49:00 10:50:15 13° 312° (NW) 10:51:29 437.345
DOVE 4 19 Dec 10:49:12 10:53:23 34° 293° (WNW) 10:57:46 437.250
CUBEBUG 1 19 Dec 10:49:26 10:52:43 21° 92° (E) 10:55:59 437.445
POPSAT HIP 1 19 Dec 10:51:21 10:55:23 45° 261° (W) 10:59:27 437.405
DELFI C3 19 Dec 10:57:23 11:01:20 44° 290° (WNW) 11:05:15 145.870
50 SAT 19 Dec 10:59:24 11:03:29 55° 100° (E) 11:07:34 437.505
UNISAT 6 19 Dec 11:02:58 11:06:39 26° 267° (W) 11:10:26 437.425
Oscar 11 19 Dec 11:08:28 11:12:23 33° 294° (WNW) 11:16:17 145.826/435.025
HUMSAT D 19 Dec 11:10:15 11:14:35 86° 104° (ESE) 11:18:56 437.325/437.525
UKube-1 19 Dec 11:15:56 11:19:57 37° 293° (WNW) 11:23:56 .
CUBEBUG 2 19 Dec 11:17:56 11:22:14 41° 292° (WNW) 11:26:37 437.445
DUCHIFAT 1 19 Dec 11:20:57 11:24:22 24° 266° (W) 11:27:49 145.980
CUSAT 1 19 Dec 11:21:33 11:24:56 25° 300° (WNW) 11:29:13 437.405
BRITE-PL 19 Dec 11:23:09 11:24:50 12° 304° (NW) 11:26:33 437.365/2234.400
CINEMA 3 19 Dec 11:25:31 11:29:20 26° 296° (WNW) 11:33:17 145.822/145.860
BUGSAT 1 19 Dec 11:26:57 11:30:17 24° 266° (W) 11:33:38 437.445
RS-15 19 Dec 11:27:40 11:37:08 36° 108° (ESE) 11:46:37 29.354- 29.394
ESTCUBE 1 19 Dec 11:28:50 11:33:15 52° 100° (E) 11:37:37 437.505/2401.250
VELOX 1 19 Dec 11:31:35 11:36:00 68° 288° (WNW) 11:40:23 145.980
QB50P2 19 Dec 11:34:05 11:37:01 18° 269° (W) 11:39:58 145.880/145.840
ZACube-1 19 Dec 11:34:53 11:39:01 37° 292° (WNW) 11:43:13 437.345
AAUSAT CUBESAT 2 19 Dec 11:35:20 11:36:49 12° 304° (NW) 11:38:18 437.432
YUBILEINY 19 Dec 11:35:54 11:44:38 83° 263° (W) 11:53:19 435.215
ANTELSAT 19 Dec 11:36:38 11:38:51 14° 273° (W) 11:41:05 437.575/2403.000
POLYITAN 1 19 Dec 11:42:57 11:45:26 15° 271° (W) 11:47:56 437.675
NANOSAT C BR1 19 Dec 11:46:43 11:48:59 14° 271° (W) 11:51:15 145.865
UWE-3 19 Dec 11:59:46 12:03:11 21° 298° (WNW) 12:06:39 435.000/436.395/437.385
FUNcube-1 19 Dec 12:02:34 12:06:03 23° 298° (WNW) 12:09:34 145.935
SPROUT 19 Dec 12:02:46 12:06:32 29° 95° (E) 12:10:17 437.525
QB50P1 19 Dec 12:02:57 12:03:21 10° 274° (W) 12:03:45 145.935-145.965
TISAT 1 19 Dec 12:04:03 12:07:49 31° 96° (E) 12:11:35 437.305
Oscar 19 19 Dec 12:06:11 12:10:55 38° 65° (ENE) 12:15:41 437.125/150
O/OREOS (USA 219) 19 Dec 12:07:42 12:10:32 17° 260° (W) 12:13:22 437.305
DANDE 19 Dec 12:08:47 12:10:46 13° 310° (NW) 12:13:00 436.750
Gurwin Techsat 1B 19 Dec 12:08:49 12:11:15 13° 51° (NE) 12:13:42 435.225
AISAT 19 Dec 12:14:27 12:18:14 28° 296° (WNW) 12:22:00 437.250
ITAMSAT 1 19 Dec 12:19:50 12:23:49 23° 58° (ENE) 12:27:49 435.822/435.867
DX 1 19 Dec 12:21:27 12:22:50 11° 306° (NW) 12:24:12 434.975-435.025
CUBEBUG 1 19 Dec 12:25:11 12:29:21 48° 290° (WNW) 12:33:31 437.445
HO-68 19 Dec 12:34:14 12:37:14 13° 322° (NW) 12:40:15 435.675
50 SAT 19 Dec 12:35:28 12:38:22 19° 299° (WNW) 12:41:16 437.505
BEESAT 19 Dec 12:38:30 12:40:48 13° 87° (E) 12:43:06 436.000
HUMSAT D 19 Dec 12:47:36 12:49:47 14° 303° (WNW) 12:51:59 437.325/437.525
BEESAT 2 19 Dec 12:55:38 12:56:05 10° 108° (ESE) 12:56:32 435.950
HORYU 2 19 Dec 13:01:30 13:03:20 12° 54° (NE) 13:05:11 437.375
AO-7 19 Dec 13:04:36 13:10:26 22° 41° (NE) 13:16:16 29.400- 29.500
ESTCUBE 1 19 Dec 13:06:21 13:09:49 22° 299° (WNW) 13:13:16 437.505/2401.250
VELOX 1 19 Dec 13:10:46 13:11:46 11° 307° (NW) 13:12:46 145.980
YUBILEINY 19 Dec 13:34:16 13:40:04 20° 286° (WNW) 13:45:53 435.215
RS-15 19 Dec 13:37:34 13:48:31 79° 313° (NW) 13:59:39 29.354- 29.394
SPROUT 19 Dec 13:38:47 13:42:40 34° 293° (WNW) 13:46:32 437.525
TISAT 1 19 Dec 13:39:54 13:43:38 31° 294° (WNW) 13:47:21 437.305
PCSat 19 Dec 13:44:13 13:48:41 27° 110° (ESE) 13:53:10 145.827
Gurwin Techsat 1B 19 Dec 13:45:01 13:50:17 67° 71° (ENE) 13:55:34 435.225
Oscar 19 19 Dec 13:45:36 13:50:17 35° 264° (W) 13:55:02 437.125/150
ITUPSAT 1 19 Dec 13:49:10 13:53:53 55° 101° (E) 13:58:33 437.325
SWISSCUBE 19 Dec 13:49:14 13:53:59 61° 102° (ESE) 13:58:41 437.505
BEESAT 3 19 Dec 13:51:07 13:54:55 37° 120° (ESE) 13:58:47 437.485
AIST 2 19 Dec 13:51:31 13:54:30 19° 113° (ESE) 13:57:30 435.215
ITAMSAT 1 19 Dec 13:57:45 14:02:54 64° 258° (WSW) 14:08:04 435.822/435.867
KKS-1 19 Dec 14:02:51 14:06:02 19° 91° (E) 14:09:12 437.445
STARS 19 Dec 14:02:52 14:04:56 13° 88° (E) 14:07:00 437.465
BEESAT 19 Dec 14:14:31 14:19:20 87° 286° (WNW) 14:24:06 436.000
AUBIESAT-1 19 Dec 14:15:02 14:19:07 34° 101° (E) 14:22:53 437.475
ISS 19 Dec 14:17:30 14:19:53 19° 141° (SE) 14:22:17 145.825
BEESAT 2 19 Dec 14:29:25 14:33:33 75° 127° (SE) 14:37:45 435.950
HORYU 2 19 Dec 14:34:47 14:39:15 78° 73° (ENE) 14:43:46 437.375
JAS-2 19 Dec 14:37:45 14:43:02 22° 54° (NE) 14:47:59 435.910
M-CUBED/EXP-1 PRIME 19 Dec 14:39:29 14:44:01 64° 107° (ESE) 14:48:08 437.505
AO-7 19 Dec 14:53:35 15:01:48 67° 64° (ENE) 15:10:04 29.400- 29.500
PCSat 19 Dec 15:26:23 15:31:44 61° 310° (NW) 15:37:09 145.827
Gurwin Techsat 1B 19 Dec 15:26:50 15:30:44 21° 270° (W) 15:34:41 435.225
ITUPSAT 1 19 Dec 15:27:43 15:31:27 23° 300° (WNW) 15:35:09 437.325
SWISSCUBE 19 Dec 15:27:53 15:31:27 21° 301° (WNW) 15:35:00 437.505
AIST 2 19 Dec 15:28:26 15:32:40 67° 312° (NW) 15:37:00 435.215
BEESAT 3 19 Dec 15:29:18 15:33:08 35° 320° (NW) 15:37:02 437.485
GONETS M04 19 Dec 15:34:06 15:41:47 32° 62° (ENE) 15:49:22
STARS 19 Dec 15:37:33 15:42:00 81° 286° (WNW) 15:46:26 437.465
KKS-1 19 Dec 15:38:39 15:43:02 56° 289° (WNW) 15:47:24 437.445
CUTE-I 19 Dec 15:41:18 15:43:18 12° 49° (NE) 15:45:18 437.470
AUBIESAT-1 19 Dec 15:50:01 15:54:03 32° 302° (WNW) 15:57:47 437.475
RS-15 19 Dec 15:52:36 16:02:44 41° 343° (NNW) 16:13:08 29.354- 29.394
ISS 19 Dec 15:52:48 15:56:06 77° 159° (SSE) 15:59:23 145.825
BEESAT 19 Dec 15:53:52 15:56:29 15° 305° (NW) 15:59:06 436.000
AIST 1 19 Dec 15:55:02 15:58:06 19° 86° (E) 16:01:10
BEESAT 2 19 Dec 16:08:54 16:12:16 23° 328° (NNW) 16:15:40 435.950
HORYU 2 19 Dec 16:14:12 16:16:30 14° 272° (W) 16:18:49 437.375
M-CUBED/EXP-1 PRIME 19 Dec 16:15:14 16:18:33 20° 308° (NW) 16:21:41 437.505
JAS-2 19 Dec 16:19:41 16:27:18 82° 73° (ENE) 16:34:12 435.910
MOZHAYETS 4 19 Dec 16:39:27 16:43:27 28° 94° (E) 16:47:24
Cubesat XI-IV 19 Dec 16:44:06 16:48:52 34° 63° (ENE) 16:53:38 437.490
AO-7 19 Dec 16:47:45 16:55:08 35° 265° (W) 17:02:36 29.400- 29.500
AIST 2 19 Dec 17:09:05 17:12:05 18° 334° (NNW) 17:15:07 435.215
MaSat-1 19 Dec 17:09:24 17:10:14 11° 46° (NE) 17:11:05 437.345
BEESAT 3 19 Dec 17:10:34 17:12:30 13° 343° (NNW) 17:14:27 437.485
PCSat 19 Dec 17:12:24 17:16:16 19° 333° (NNW) 17:20:10 145.827
STARS 19 Dec 17:15:53 17:17:46 13° 305° (NW) 17:19:39 437.465
CUTE-I 19 Dec 17:17:07 17:22:21 60° 69° (ENE) 17:27:35 437.470
ISS 19 Dec 17:29:32 17:32:48 58° 359° (N) 17:36:03 145.825
GONETS M04 19 Dec 17:30:43 17:39:27 72° 265° (W) 17:48:05
AIST 1 19 Dec 17:31:08 17:35:24 50° 284° (WNW) 17:39:40
HO-68 19 Dec 17:46:22 17:50:13 16° 41° (NE) 17:54:03 435.675
PRISM 19 Dec 17:49:27 17:52:38 21° 93° (E) 17:55:47 437.425
BEESAT 2 19 Dec 17:50:56 17:52:00 11° 351° (N) 17:53:05 435.950
CUBESAT XI-V 19 Dec 18:00:04 18:02:51 16° 88° (E) 18:05:38 437.345
JAS-2 19 Dec 18:07:02 18:12:56 24° 270° (W) 18:18:29 435.910
RS-15 19 Dec 18:08:13 18:18:29 41° 17° (NNE) 18:29:05 29.354- 29.394
MOZHAYETS 4 19 Dec 18:16:28 18:20:48 40° 292° (WNW) 18:25:05
Cubesat XI-IV 19 Dec 18:23:51 18:28:53 41° 262° (W) 18:33:56 437.490
CUSAT 1 19 Dec 18:28:25 18:32:49 17° 54° (NE) 18:37:37 437.405
MaSat-1 19 Dec 18:41:34 18:43:45 34° 243° (WSW) 18:46:02 437.345
AIST 2 19 Dec 18:51:25 18:52:25 11° 358° (N) 18:53:25 435.215
BEESAT 3 19 Dec 18:51:42 18:52:31 10° 7° (N) 18:53:19 437.485
CUTE-I 19 Dec 18:58:39 19:02:49 23° 268° (W) 19:07:01 437.470
PCSat 19 Dec 18:59:44 19:01:56 12° 360° (N) 19:04:07 145.827
ISS 19 Dec 19:06:14 19:09:32 88° 199° (SSW) 19:12:49 145.825
DANDE 19 Dec 19:14:09 19:20:03 27° 62° (ENE) 19:26:47 436.750
AAUSAT CUBESAT 2 19 Dec 19:19:21 19:21:59 16° 59° (ENE) 19:24:39 437.432
STRAND 1 19 Dec 19:20:46 19:25:52 68° 103° (ESE) 19:30:56 437.568
BRITE-PL 19 Dec 19:20:56 19:24:19 25° 64° (ENE) 19:27:43 437.365/2234.400
PRISM 19 Dec 19:24:24 19:28:23 44° 291° (WNW) 19:32:20 437.425
CANX-2 19 Dec 19:27:53 19:31:36 30° 66° (ENE) 19:35:21 2200.000
HO-68 19 Dec 19:29:31 19:36:26 54° 63° (ENE) 19:43:23 435.675
GONETS M04 19 Dec 19:29:31 19:34:38 17° 288° (WNW) 19:39:43
BEESAT 2 19 Dec 19:30:17 19:32:06 12° 16° (NNE) 19:33:55 435.950
CUBESAT XI-V 19 Dec 19:36:13 19:40:49 71° 287° (WNW) 19:45:23 437.345
UWE-3 19 Dec 19:51:31 19:52:43 11° 54° (NE) 19:53:55 435.000/436.395/437.385
GOMX 1 19 Dec 19:52:16 19:56:03 35° 67° (ENE) 19:59:54 467.674
COMPASS 1 19 Dec 19:52:26 19:56:17 35° 67° (ENE) 20:00:10 437.405
SEEDS 19 Dec 19:56:21 20:00:24 44° 69° (ENE) 20:04:29 437.485
CUTE 1.7 + AOD 2 19 Dec 19:58:19 20:02:28 52° 71° (ENE) 20:06:40 437.475
DX 1 19 Dec 20:07:54 20:11:16 22° 61° (ENE) 20:14:38 434.975-435.025
CUSAT 1 19 Dec 20:10:02 20:17:15 59° 73° (ENE) 20:25:34 437.405
DELFI C3 19 Dec 20:15:36 20:18:58 25° 64° (ENE) 20:22:20 145.870
RS-15 19 Dec 20:21:33 20:32:47 78° 47° (NE) 20:44:29 29.354- 29.394
DOVE 4 19 Dec 20:21:59 20:26:01 52° 71° (ENE) 20:30:08 437.250
BEESAT 3 19 Dec 20:28:58 20:32:14 21° 31° (NNE) 20:35:28 437.485
AIST 2 19 Dec 20:30:07 20:32:49 16° 22° (NNE) 20:35:29 435.215
Oscar 11 19 Dec 20:31:17 20:35:21 41° 69° (ENE) 20:39:28 145.826/435.025
HUMSAT D 19 Dec 20:33:24 20:35:40 15° 58° (ENE) 20:37:57 437.325/437.525
UKube-1 19 Dec 20:39:12 20:43:15 40° 68° (ENE) 20:47:20 .
ISS 19 Dec 20:43:11 20:45:48 22° 217° (SW) 20:48:25 145.825
PCSat 19 Dec 20:43:45 20:47:36 19° 26° (NNE) 20:51:26 145.827
CUBEBUG 2 19 Dec 20:44:30 20:48:21 36° 67° (ENE) 20:52:18 437.445
AAUSAT CUBESAT 2 19 Dec 20:53:00 20:57:11 67° 258° (WSW) 21:01:26 437.432
CINEMA 3 19 Dec 20:54:26 20:58:34 69° 73° (ENE) 21:02:51 145.822/145.860
DANDE 19 Dec 20:56:57 21:04:13 87° 259° (W) 21:12:49 436.750
VELOX 1 19 Dec 20:58:12 21:01:48 25° 63° (ENE) 21:05:24 145.980
BRITE-PL 19 Dec 20:58:54 21:02:45 36° 263° (W) 21:06:37 437.365/2234.400
ESTCUBE 1 19 Dec 20:59:04 21:01:07 13° 55° (NE) 21:03:09 437.505/2401.250
ZACube-1 19 Dec 20:59:17 21:03:10 37° 68° (ENE) 21:07:08 437.345
STRAND 1 19 Dec 21:00:49 21:04:36 21° 302° (WNW) 21:08:22 437.568
CANX-2 19 Dec 21:03:36 21:07:29 33° 264° (W) 21:11:25 2200.000
BEESAT 2 19 Dec 21:07:46 21:11:36 32° 38° (NE) 21:15:24 435.950
CUBESAT XI-V 19 Dec 21:15:55 21:17:26 12° 306° (NW) 21:18:57 437.345
HO-68 19 Dec 21:17:49 21:24:23 38° 264° (W) 21:31:00 435.675
UWE-3 19 Dec 21:24:18 21:28:28 76° 74° (ENE) 21:32:48 435.000/436.395/437.385
FUNcube-1 19 Dec 21:26:00 21:30:09 67° 73° (ENE) 21:34:26 145.935
COMPASS 1 19 Dec 21:28:27 21:32:04 27° 266° (W) 21:35:44 437.405
GOMX 1 19 Dec 21:30:54 21:34:20 25° 267° (W) 21:37:48 467.674
SEEDS 19 Dec 21:33:07 21:36:26 22° 268° (W) 21:39:47 437.485
CUTE 1.7 + AOD 2 19 Dec 21:35:41 21:38:43 19° 270° (W) 21:41:46 437.475
AISAT 19 Dec 21:39:55 21:44:16 60° 71° (ENE) 21:48:38 437.250
DX 1 19 Dec 21:43:02 21:47:15 48° 260° (W) 21:51:28 434.975-435.025
SO-50 19 Dec 21:46:26 21:50:52 53° 123° (ESE) 21:55:28 436.795
ANTELSAT 19 Dec 21:46:28 21:48:45 13° 87° (E) 21:51:03 437.575/2403.000
CUBEBUG 1 19 Dec 21:49:54 21:53:44 31° 65° (ENE) 21:57:34 437.445
DELFI C3 19 Dec 21:50:13 21:54:04 38° 263° (W) 21:57:58 145.870
50 SAT 19 Dec 21:51:54 21:55:53 62° 72° (ENE) 21:59:55 437.505
CUSAT 1 19 Dec 21:53:28 22:00:12 39° 270° (W) 22:07:46 437.405
DOVE 4 19 Dec 22:01:25 22:04:11 17° 270° (W) 22:07:00 437.250
QB50P1 19 Dec 22:05:45 22:07:17 12° 87° (E) 22:08:49 145.935-145.965
BEESAT 3 19 Dec 22:06:45 22:10:57 85° 232° (SW) 22:15:07 437.485
HUMSAT D 19 Dec 22:06:46 22:10:55 76° 257° (WSW) 22:15:08 437.325/437.525
Oscar 11 19 Dec 22:08:09 22:11:41 24° 267° (W) 22:15:16 145.826/435.025
AIST 2 19 Dec 22:08:10 22:12:24 51° 44° (NE) 22:16:34 435.215
UKube-1 19 Dec 22:16:00 22:19:34 25° 266° (W) 22:23:09 .
TIGRISAT 19 Dec 22:21:20 22:25:19 27° 94° (E) 22:29:19 435.000
CUBEBUG 2 19 Dec 22:21:37 22:25:09 26° 267° (W) 22:28:48 437.445
PCSat 19 Dec 22:26:46 22:32:09 59° 49° (NE) 22:37:30 145.827
ESTCUBE 1 19 Dec 22:32:43 22:37:16 81° 74° (ENE) 22:41:50 437.505/2401.250
POPSAT HIP 1 19 Dec 22:32:54 22:36:13 22° 93° (E) 22:39:32 437.405
VELOX 1 19 Dec 22:33:58 22:38:11 43° 261° (W) 22:42:26 145.980
CINEMA 3 19 Dec 22:34:11 22:36:21 14° 273° (W) 22:38:33 145.822/145.860
RS-15 19 Dec 22:34:26 22:44:22 38° 251° (WSW) 22:54:41 29.354- 29.394
ZACube-1 19 Dec 22:36:11 22:39:40 25° 267° (W) 22:43:15 437.345
DANDE 19 Dec 22:41:34 22:47:05 23° 276° (W) 22:53:12 436.750
BEESAT 2 19 Dec 22:45:59 22:49:58 43° 239° (WSW) 22:53:55 435.950
YUBILEINY 19 Dec 22:47:54 22:54:33 25° 78° (ENE) 23:01:10 435.215
UNISAT 6 19 Dec 22:49:40 22:54:14 49° 99° (E) 22:58:49 437.425
TISAT 1 19 Dec 23:00:50 23:04:47 41° 69° (ENE) 23:08:46 437.305
DUCHIFAT 1 19 Dec 23:00:56 23:04:57 39° 98° (E) 23:08:57 145.980
SPROUT 19 Dec 23:01:16 23:05:14 39° 68° (ENE) 23:09:14 437.525
UWE-3 19 Dec 23:03:46 23:05:38 13° 273° (W) 23:07:32 435.000/436.395/437.385
BUGSAT 1 19 Dec 23:04:23 23:08:06 34° 97° (E) 23:11:49 437.445
FUNcube-1 19 Dec 23:04:44 23:07:01 14° 272° (W) 23:09:21 145.935
QB50P2 19 Dec 23:13:44 23:17:56 55° 101° (E) 23:22:08 145.880/145.840
AISAT 19 Dec 23:18:20 23:21:17 18° 270° (W) 23:24:16 437.250
ANTELSAT 19 Dec 23:21:27 23:26:11 87° 285° (WNW) 23:30:56 437.575/2403.000
POLYITAN 1 19 Dec 23:22:12 23:26:29 67° 102° (ESE) 23:30:46 437.675
SWISSCUBE 19 Dec 23:24:26 23:27:40 18° 58° (ENE) 23:30:55 437.505
ITUPSAT 1 19 Dec 23:24:45 23:27:50 17° 57° (ENE) 23:30:55 437.325
NANOSAT C BR1 19 Dec 23:25:14 23:29:30 71° 103° (ESE) 23:33:45 145.865
CUBEBUG 1 19 Dec 23:26:07 23:30:04 33° 264° (W) 23:34:02 437.445
SO-50 19 Dec 23:27:28 23:31:40 33° 324° (NW) 23:35:59 436.795
50 SAT 19 Dec 23:29:19 23:31:33 14° 271° (W) 23:33:47 437.505
AUBIESAT-1 19 Dec 23:34:31 23:37:44 18° 51° (NE) 23:40:57 437.475
QB50P1 19 Dec 23:39:30 23:43:47 84° 285° (WNW) 23:48:03 145.935-145.965
BEESAT 3 19 Dec 23:46:51 23:48:27 12° 251° (WSW) 23:50:03 437.485
AIST 2 19 Dec 23:47:15 23:50:47 25° 244° (WSW) 23:54:16 435.215
BEESAT 19 Dec 23:48:42 23:52:40 26° 62° (ENE) 23:56:38 436.000
TIGRISAT 19 Dec 23:57:47 00:02:13 43° 292° (WNW) 00:06:39 435.000
M-CUBED/EXP-1 PRIME 19 Dec 23:58:20 00:02:28 28° 57° (ENE) 00:06:36 437.505
POPSAT HIP 1 20 Dec 00:08:17 00:12:20 44° 291° (WNW) 00:16:24 437.405
PCSat 20 Dec 00:10:42 00:15:15 28° 249° (WSW) 00:19:46 145.827
ESTCUBE 1 20 Dec 00:12:30 00:14:44 13° 272° (W) 00:16:59 437.505/2401.250
UNISAT 6 20 Dec 00:26:58 00:30:46 25° 298° (WNW) 00:34:36 437.425
DUCHIFAT 1 20 Dec 00:37:10 00:40:39 25° 296° (WNW) 00:44:08 145.980
TISAT 1 20 Dec 00:37:27 00:40:48 23° 267° (W) 00:44:09 437.305
SPROUT 20 Dec 00:37:56 00:41:28 25° 266° (W) 00:45:01 437.525
BUGSAT 1 20 Dec 00:40:07 00:43:30 26° 295° (WNW) 00:46:54 437.445
YUBILEINY 20 Dec 00:41:34 00:50:20 84° 280° (W) 00:59:06 435.215
O/OREOS (USA 219) 20 Dec 00:44:07 00:48:04 32° 106° (ESE) 00:52:03 437.305
QB50P2 20 Dec 00:50:27 00:53:31 20° 299° (WNW) 00:56:35 145.880/145.840
POLYITAN 1 20 Dec 00:59:14 01:01:59 17° 301° (WNW) 01:04:43 437.675
ANTELSAT 20 Dec 00:59:47 01:02:18 15° 304° (NW) 01:04:51 437.575/2403.000
SWISSCUBE 20 Dec 01:00:13 01:05:01 74° 257° (WSW) 01:09:50 437.505
ITUPSAT 1 20 Dec 01:00:20 01:05:09 80° 256° (WSW) 01:09:59 437.325
NANOSAT C BR1 20 Dec 01:02:18 01:04:53 16° 301° (WNW) 01:07:28 145.865
STARS 20 Dec 01:03:57 01:07:13 21° 61° (ENE) 01:10:31 437.465
KKS-1 20 Dec 01:05:16 01:09:06 29° 64° (ENE) 01:12:57 437.445
AUBIESAT-1 20 Dec 01:07:11 01:12:03 90° 70° (ENE) 01:16:59 437.475
SO-50 20 Dec 01:10:55 01:13:38 15° 348° (NNW) 01:16:24 436.795
QB50P1 20 Dec 01:17:19 01:19:00 12° 304° (NW) 01:20:41 145.935-145.965
BEESAT 20 Dec 01:25:40 01:30:17 47° 261° (W) 01:34:56 436.000
M-CUBED/EXP-1 PRIME 20 Dec 01:32:27 01:37:12 52° 255° (WSW) 01:42:01 437.505
Oscar 19 20 Dec 01:52:01 01:57:11 60° 101° (ESE) 02:02:19 437.125/150
Gurwin Techsat 1B 20 Dec 01:57:40 02:01:24 19° 89° (E) 02:05:07 435.225
ITAMSAT 1 20 Dec 02:06:21 02:11:00 33° 96° (E) 02:15:37 435.822/435.867
O/OREOS (USA 219) 20 Dec 02:23:20 02:27:26 35° 306° (NW) 02:31:34 437.305
HORYU 2 20 Dec 02:24:18 02:25:46 11° 86° (E) 02:27:15 437.375
STARS 20 Dec 02:39:06 02:43:23 53° 260° (W) 02:47:42 437.465
KKS-1 20 Dec 02:41:35 02:45:40 36° 263° (W) 02:49:47 437.445
YUBILEINY 20 Dec 02:41:59 02:48:37 23° 305° (NW) 02:55:17 435.215
ITUPSAT 1 20 Dec 02:42:21 02:43:50 11° 274° (W) 02:45:19 437.325
SWISSCUBE 20 Dec 02:43:11 02:43:44 10° 275° (W) 02:44:17 437.505
AUBIESAT-1 20 Dec 02:44:57 02:47:37 15° 267° (W) 02:50:17 437.475
AO-7 20 Dec 02:52:12 02:56:36 15° 83° (E) 03:00:59 29.400- 29.500
SO-50 20 Dec 02:53:14 02:56:06 15° 13° (NNE) 02:58:59 436.795
Oscar 19 20 Dec 03:32:02 03:36:09 24° 301° (WNW) 03:40:16 437.125/150
AIST 1 20 Dec 03:33:50 03:38:06 63° 78° (ENE) 03:42:20
Gurwin Techsat 1B 20 Dec 03:36:37 03:41:56 72° 288° (WNW) 03:47:12 435.225
MOZHAYETS 4 20 Dec 03:45:32 03:49:56 43° 68° (ENE) 03:54:21
ITAMSAT 1 20 Dec 03:45:45 03:50:35 41° 294° (WNW) 03:55:24 435.822/435.867
HORYU 2 20 Dec 03:58:35 04:03:09 87° 104° (ESE) 04:07:40 437.375
SO-50 20 Dec 04:33:34 04:38:01 35° 37° (NE) 04:42:31 436.795
GONETS M04 20 Dec 04:41:55 04:49:09 30° 80° (E) 04:56:23
AO-7 20 Dec 04:42:44 04:51:06 66° 105° (ESE) 04:59:23 29.400- 29.500
PRISM 20 Dec 04:44:15 04:47:55 29° 65° (ENE) 04:51:36 437.425
VERMONT LUNAR 20 Dec 05:00:29 05:02:50 17° 170° (S) 05:05:12 437.305
STRAND 1 20 Dec 05:03:17 05:07:25 25° 60° (ENE) 05:11:33 437.568
CUBESAT XI-V 20 Dec 05:07:31 05:11:23 26° 63° (ENE) 05:15:14 437.345
JAS-2 20 Dec 05:10:39 05:16:15 46° 97° (E) 05:21:20 435.910
PHONESAT 2.4 20 Dec 05:11:33 05:13:54 17° 168° (SSE) 05:16:15 2401.200-2431.200
AIST 1 20 Dec 05:12:51 05:15:15 15° 277° (W) 05:17:37
Gurwin Techsat 1B 20 Dec 05:18:18 05:21:00 14° 308° (NW) 05:23:43 435.225
MOZHAYETS 4 20 Dec 05:23:26 05:27:19 26° 267° (W) 05:31:15
CUTE-I 20 Dec 05:30:55 05:34:16 17° 88° (E) 05:37:37 437.470
HORYU 2 20 Dec 05:36:41 05:39:11 15° 304° (NW) 05:41:41 437.375
SO-50 20 Dec 06:14:03 06:18:48 53° 237° (WSW) 06:23:34 436.795
PRISM 20 Dec 06:19:33 06:23:23 33° 263° (W) 06:27:15 437.425
AO-7 20 Dec 06:35:59 06:43:30 39° 307° (NW) 06:50:59 29.400- 29.500
Cubesat XI-IV 20 Dec 06:36:14 06:41:29 57° 101° (E) 06:46:42 437.490
GONETS M04 20 Dec 06:36:21 06:45:12 74° 282° (WNW) 06:54:05
VERMONT LUNAR 20 Dec 06:38:00 06:40:27 18° 188° (S) 06:42:53 437.305
STRAND 1 20 Dec 06:41:17 06:46:18 55° 259° (W) 06:51:20 437.568
CUBESAT XI-V 20 Dec 06:44:09 06:48:37 44° 262° (W) 06:53:06 437.345
PHONESAT 2.4 20 Dec 06:49:14 06:51:52 19° 185° (S) 06:54:30 2401.200-2431.200
